Pablo Isla

Chefscout - Universidad de Chile
25 Nov 2027
Donnerstag
Verarbeitung

Persönlichkeit

Anpassungsfähigkeit (8) Ehrgeiz (1) Kontroverse (19) Loyalität (8) Druck (19) Professionalität (7) Fairness (15) Temperament (19)

Profil

Trainerstil Demokratisch
Lizenz Nationale A
Entschlossenheit 13
Menschenführung 5
Motivation 11
Disziplin 6
Arbeitszufriedenheit
100%
Ermüdung
0%
Rolle Chefscout
Gehalt 65.6K p/W
Vertrag 14.03.2029

Leistung

Verhalten Gut
Trainingseffektivität
39%
Spielerentwicklung
35%
Verletzungsprävention
65%
Taktische Umsetzung
55%

Letzte Ereignisse

Spieler begutachtet jetzt
Nahm an einer Scouting-Besprechung teil jetzt
Empfahl ein Transferziel jetzt
Empfahl ein Transferziel jetzt
Empfahl ein Transferziel jetzt
Empfahl ein Transferziel jetzt
Empfahl ein Transferziel jetzt
Nahm an einer Scouting-Besprechung teil jetzt

Aktuell beobachtet

272
Spieler Verein Status Fähigkeit Vertrauen Beobachtet Zuletzt beobachtet Letzte Stimme
Mateo Mendoza Godoy Cruz Aktiv 136 / 135 40% 10 24.11.2027 -
Ralph Orquin Seattle Sounders Aktiv 130 / 128 40% 3 24.11.2027 -
James Cardona La Equidad Aktiv 147 / 139 40% 10 23.11.2027 -
Bruno Leyes Godoy Cruz Aktiv 135 / 133 40% 1 23.11.2027 -
Fernando Martínez Central Córdoba SdE Aktiv 118 / 112 40% 2 22.11.2027 -
Jermein Peña Junior Aktiv 117 / 131 40% 3 21.11.2027 -
Alfredo Giraldo La Equidad Aktiv 121 / 127 40% 2 21.11.2027 -
Adrián Sánchez Belgrano Aktiv 121 / 116 40% 2 18.11.2027 -
Lucas Carrizo Newell's Old Boys Aktiv 123 / 128 40% 1 18.11.2027 -
Nahuel Herrera Penarol Aktiv 122 / 130 40% 3 17.11.2027 -
Felipe Peña Biafore Lanús Aktiv 122 / 131 40% 2 17.11.2027 -
Samuel Velásquez Atletico Nacional Aktiv 123 / 117 40% 4 16.11.2027 -
Wilmar Hurtado Millonarios Aktiv 119 / 130 40% 6 14.11.2027 -
Diego Hernández Aguilas Doradas Aktiv 117 / 125 40% 7 13.11.2027 -
Ignacio Perruzzi San Lorenzo Aktiv 119 / 138 40% 1 12.11.2027 -
Nahuel Banegas Tigre Aktiv 129 / 116 40% 1 10.11.2027 -
Vicente Poggi Godoy Cruz Aktiv 134 / 118 40% 6 09.11.2027 -
Yílmar Velásquez Santa Fe Aktiv 126 / 129 40% 2 09.11.2027 -
Emanuel Coronel Rosario Central Aktiv 127 / 125 40% 4 05.11.2027 -
José Ortiz Atletico Bucaramanga Aktiv 125 / 120 40% 3 05.11.2027 -
Emanuel Mammana Vélez Aktiv 129 / 124 40% 1 04.11.2027 -
Lucas Agazzi Defensor Sporting Aktiv 115 / 123 40% 6 03.11.2027 -
Mateo Castillo Millonarios Aktiv 129 / 132 40% 3 02.11.2027 -
Lucas Souto Defensa y Justicia Aktiv 120 / 130 40% 1 02.11.2027 -
Jorman Campuzano Atletico Nacional Aktiv 131 / 130 40% 3 31.10.2027 -
Leonardo Gonzalez Cortulua Aktiv 116 / 131 40% 4 30.10.2027 -
Damián Fernández Defensa y Justicia Aktiv 124 / 124 40% 2 30.10.2027 -
Gonzalo Abrego Godoy Cruz Aktiv 128 / 125 40% 7 28.10.2027 -
Santiago Jiménez Deportivo Pasto Aktiv 123 / 110 40% 2 28.10.2027 -
Nicolás Tripichio San Lorenzo Aktiv 135 / 128 40% 2 26.10.2027 -
Juan Saborido Platense Aktiv 132 / 121 40% 2 23.10.2027 -
Nazareno Colombo Racing Club Aktiv 132 / 118 40% 1 23.10.2027 -
Emiliano Álvarez Progreso Aktiv 120 / 126 40% 3 22.10.2027 -
Francisco Álvarez Argentinos Juniors Aktiv 119 / 132 40% 2 22.10.2027 -
Leonardo Borja La Equidad Aktiv 153 / 149 40% 3 21.10.2027 -
Andrés Llinás Millonarios Aktiv 128 / 127 40% 2 16.10.2027 -
Jhomier Guerrero Millonarios Aktiv 116 / 128 40% 1 14.10.2027 -
Ignacio Abraham Banfield Aktiv 116 / 115 40% 2 13.10.2027 -
Sasha Marcich Lanús Aktiv 121 / 119 40% 3 12.10.2027 -
Mateo Garavito Deportivo Pasto Aktiv 130 / 121 40% 1 11.10.2027 -
Jean Carlos Pestaña Junior Aktiv 113 / 121 40% 1 28.09.2027 -
Anderson Angulo Deportes Tolima Aktiv 113 / 122 40% 2 25.09.2027 -
Tomás Escalante Plaza Colonia Aktiv 131 / 132 40% 3 25.09.2027 -
Nicolás Paz San Martín SJ Aktiv 114 / 118 40% 2 19.09.2027 -
Gonzalo Montiel River Plate Aktiv 128 / 134 40% 1 19.09.2027 -
Juan Camilo Pérez Carabobo Aktiv 114 / 119 40% 1 15.09.2027 -
Fabricio Domínguez Cerro Porteno Aktiv 118 / 125 40% 1 12.09.2027 -
Juan Infante Atlético Tucumán Aktiv 114 / 124 40% 1 09.09.2027 -
Jan Carlos Ángulo Deportes Tolima Aktiv 130 / 122 40% 1 26.08.2027 -
Pablo Siles Montevideo City Torque Aktiv 127 / 121 40% 1 25.08.2027 -
Andrés Román Atletico Nacional Aktiv 125 / 114 40% 1 24.08.2027 -
Alessandro Buongiorno Sassuolo Aktiv 151 / 165 40% 1 20.08.2027 -
Lewis Ferguson Bologna Aktiv 147 / 146 40% 1 18.08.2027 -
Andrea Carboni Monza Aktiv 120 / 130 40% 1 16.08.2027 -
Tomás Ribeiro Cultural Leonesa Aktiv 127 / 116 40% 3 12.08.2027 -
Nadir Zortea Bologna Aktiv 135 / 134 40% 1 10.08.2027 -
Guille Rosas Gijón Aktiv 139 / 136 40% 3 09.08.2027 -
Will Fish Cardiff City Aktiv 134 / 139 40% 2 09.08.2027 -
Azor Matusiwa Ipswich Town Aktiv 150 / 128 40% 3 05.08.2027 -
Shea Charles Southampton Aktiv 132 / 133 40% 4 05.08.2027 -
Adrien Truffert Bournemouth Aktiv 141 / 142 40% 4 04.08.2027 -
Zak Swanson Bradford City Aktiv 107 / 127 40% 1 04.08.2027 -
Juanlu Bournemouth Aktiv 163 / 166 40% 4 03.08.2027 -
Max Bird Birmingham Aktiv 124 / 143 40% 2 03.08.2027 -
Jacques Ekomié Wrexham Aktiv 148 / 122 40% 2 31.07.2027 -
Derry Murkin Derby County Aktiv 134 / 119 40% 1 31.07.2027 -
Jack Currie Oxford United Aktiv 138 / 128 40% 3 30.07.2027 -
Lautaro Vargas Leganés Aktiv 113 / 136 40% 2 30.07.2027 -
Toby Collyer West Bromwich Albion Aktiv 147 / 143 40% 3 29.07.2027 -
Florentino Luís Ipswich Town Aktiv 160 / 131 40% 3 28.07.2027 -
Rob Atkinson Bristol City Aktiv 126 / 117 40% 2 26.07.2027 -
Ryan Sessegnon Fulham Aktiv 141 / 136 40% 3 24.07.2027 -
Alfie Doughty Millwall Aktiv 140 / 128 40% 1 24.07.2027 -
Milan van Ewijk Mansfield Town Aktiv 148 / 131 40% 3 23.07.2027 -
Imrân Louza Watford Aktiv 123 / 138 40% 1 23.07.2027 -
Mandla Erasmus SuperSport United Aktiv 137 / 139 40% 2 20.07.2027 -
Adam Wharton Crystal Palace Aktiv 152 / 158 40% 4 20.07.2027 -
Josh Tymon Swansea City Aktiv 129 / 136 40% 1 18.07.2027 -
Dara O'Shea Ipswich Town Aktiv 145 / 127 40% 4 17.07.2027 -
Jacob Greaves Ipswich Town Aktiv 144 / 130 40% 3 16.07.2027 -
Callum Doyle Wrexham Aktiv 127 / 142 40% 1 15.07.2027 -
Kenny Tete Fulham Aktiv 146 / 133 40% 1 13.07.2027 -
Yehor Yarmoliuk Brentford Aktiv 155 / 165 40% 1 11.07.2027 -
Japhet Tanganga Sheffield United Aktiv 148 / 121 40% 1 10.07.2027 -
Kayne Ramsay Charlton Athletic Aktiv 132 / 135 40% 1 10.07.2027 -
Saša Lukić Ipswich Town Aktiv 136 / 144 40% 1 08.07.2027 -
Ethan Galbraith Swansea City Aktiv 123 / 146 40% 4 06.07.2027 -
Tyler Adams Bournemouth Aktiv 142 / 151 40% 2 05.07.2027 -
Quinten Timber Crystal Palace Aktiv 166 / 144 40% 2 02.07.2027 -
Atsuki Ito Bolton Wanderers Aktiv 113 / 139 40% 1 02.07.2027 -
Noah Sadiki Sunderland Aktiv 143 / 161 40% 1 01.07.2027 -
Juan Mosquera Sheffield Wednesday Aktiv 127 / 123 40% 1 30.06.2027 -
Callum Brittain Middlesbrough Aktiv 139 / 129 40% 3 26.06.2027 -
Radinio Balker Huddersfield Town Aktiv 122 / 130 40% 1 26.06.2027 -
Óscar Mingueza Crystal Palace Aktiv 166 / 142 40% 2 22.06.2027 -
Julio Alonso Huesca Aktiv 118 / 133 40% 2 22.06.2027 -
Josh Edwards Charlton Athletic Aktiv 132 / 115 40% 1 15.06.2027 -
Kellen Fisher Norwich City Aktiv 127 / 112 40% 1 15.06.2027 -
Alejandro Balde Barcelona Aktiv 168 / 158 40% 1 11.06.2027 -
Darlin Yongwa Norwich City Aktiv 135 / 123 40% 1 10.06.2027 -
Facundo Torres LOSC Lille Verhandlung 134 / 134 67% 1 01.06.2027 Befürworten
Bitello SC Freiburg Aktiv 135 / 135 68% 1 01.06.2027 Befürworten
Agustín Venezia Iquique Aktiv 112 / 112 58% 1 01.06.2027 Befürworten
Giacomo Raspadori Atalanta Aktiv 159 / 146 40% 6 31.05.2027 -
Aune Heggebø West Bromwich Albion Aktiv 132 / 136 40% 4 30.05.2027 -
Marcus Edwards Burnley Aktiv 129 / 131 40% 1 30.05.2027 -
Morgan Whittaker Middlesbrough Aktiv 121 / 124 40% 4 29.05.2027 -
Mohamed Belloumi Hull City Aktiv 127 / 146 40% 1 29.05.2027 -
Oli McBurnie Hull City Aktiv 140 / 122 40% 6 27.05.2027 -
Nicolò Zaniolo Udinese Aktiv 135 / 144 40% 4 25.05.2027 -
Yussif Saidu Zaragoza Aktiv 130 / 125 40% 1 24.05.2027 -
Pietro Reggiori Pro Patria Aktiv 86 / 96 40% 1 24.05.2027 -
Tom Cannon Sheffield United Aktiv 128 / 121 40% 6 23.05.2027 -
Finn Azaz Southampton Aktiv 128 / 118 40% 2 22.05.2027 -
Dylan Lawlor Cardiff City Aktiv 112 / 127 40% 2 20.05.2027 -
Caleb Yirenkyi Coventry City Aktiv 130 / 153 40% 1 20.05.2027 -
Dávid Strelec Middlesbrough Aktiv 126 / 143 40% 2 19.05.2027 -
Tommy Conway Middlesbrough Aktiv 135 / 137 40% 3 18.05.2027 -
Lewis Morgan SuperSport United Aktiv 136 / 116 40% 2 17.05.2027 -
Ali Ahmed Norwich City Aktiv 122 / 137 40% 1 16.05.2027 -
Hwang Hee-Chan Wolverhampton Aktiv 137 / 124 40% 3 14.05.2027 -
Georginio Rutter Brighton Aktiv 160 / 136 40% 2 10.05.2027 -
Sorba Thomas Stoke City Aktiv 125 / 137 40% 2 06.05.2027 -
Bertrand Traoré Sunderland Aktiv 123 / 130 40% 4 06.05.2027 -
Josh King Chelsea Aktiv 141 / 155 40% 1 05.05.2027 -
Petar Musa Adana Demirspor Aktiv 126 / 152 40% 10 02.05.2027 -
Joe Gelhardt Hull City Aktiv 124 / 131 40% 2 01.05.2027 -
Dominic Calvert-Lewin Leeds United Aktiv 138 / 136 40% 1 01.05.2027 -
Callum O'Hare Sheffield United Aktiv 119 / 139 40% 2 30.04.2027 -
Jofre Torrents Ajax Aktiv 110 / 139 40% 1 29.04.2027 -
Ibrahim Maza Bayer Leverkusen Aktiv 146 / 153 40% 1 29.04.2027 -
Yousef Salech Cardiff City Aktiv 118 / 117 40% 3 28.04.2027 -
Keinan Davis Udinese Aktiv 128 / 124 40% 2 28.04.2027 -
Luis Vázquez Birmingham Aktiv 117 / 124 40% 3 25.04.2027 -
Lorenzo Colombo Genoa Aktiv 128 / 145 40% 4 22.04.2027 -
Mohamed-Ali Cho Hull City Aktiv 145 / 142 40% 3 21.04.2027 -
Isaiah Jones Luton Town Aktiv 140 / 117 40% 1 16.04.2027 -
Othmane Maamma Watford Aktiv 112 / 133 40% 1 15.04.2027 -
Scott Twine Bristol City Aktiv 115 / 121 40% 1 14.04.2027 -
Nordi Mukiele Sunderland Aktiv 140 / 156 40% 1 12.04.2027 -
Ronald Swansea City Aktiv 138 / 124 40% 1 11.04.2027 -
Tyrese Campbell Sheffield United Aktiv 121 / 128 40% 5 08.04.2027 -
Martim Cunha Porto Aktiv 107 / 115 40% 1 08.04.2027 -
Adnan Courtois KV Oostende Aktiv 152 / 140 40% 2 07.04.2027 -
Christos Mouzakitis Hull City Aktiv 123 / 148 40% 2 07.04.2027 -
Zeki Amdouni Burnley Aktiv 129 / 119 40% 1 07.04.2027 -
Zian Flemming Ipswich Town Aktiv 121 / 130 40% 1 30.03.2027 -
Surprise Manthosi Polokwane City Aktiv 91 / 93 40% 1 29.03.2027 -
Bamba Dieng Crvena Zvezda Aktiv 136 / 132 40% 5 28.03.2027 -
Ismaïla Sarr Crystal Palace Aktiv 164 / 156 40% 1 24.03.2027 Mehr Infos nötig
Ilyas Ansah Hull City Aktiv 125 / 122 40% 3 23.03.2027 -
Matt O'Riley Brighton Aktiv 138 / 154 40% 1 23.03.2027 -
Darlvin Yeboah Bechem United Aktiv 89 / 83 40% 1 21.03.2027 -
Romelu Castagne KV Oostende Aktiv 123 / 122 40% 2 18.03.2027 -
Nicolò Tresoldi Club Brugge Aktiv 142 / 131 40% 2 18.03.2027 -
Moussa Dembélé CR Belouizdad Aktiv 140 / 126 40% 3 17.03.2027 -
Tom Fellows Southampton Aktiv 144 / 143 40% 2 16.03.2027 -
Hany Mukhtar Spezia Aktiv 145 / 133 40% 14 10.03.2027 -
Guilherme Ankaragucu Aktiv 121 / 129 40% 2 09.03.2027 -
Wilson Isidor Sunderland Aktiv 122 / 149 40% 2 08.03.2027 -
Derensili Sanches Fernandes Huddersfield Town Aktiv 136 / 134 40% 1 08.03.2027 -
Razvan Balasa Crvena Zvezda Aktiv 134 / 138 40% 7 06.03.2027 -
Rafiu Durosinmi Racing Genk Aktiv 124 / 135 40% 4 02.03.2027 -
Habib Diarra Sunderland Aktiv 128 / 152 40% 1 01.03.2027 -
Carlos Vicente Birmingham Aktiv 142 / 134 40% 1 23.02.2027 -
Aidan Morris Middlesbrough Aktiv 144 / 128 40% 1 22.02.2027 -
Kauã Elias Anderlecht Aktiv 117 / 146 40% 1 09.02.2027 -
Rey Manaj Sivasspor Aktiv 119 / 110 40% 1 09.02.2027 -
Felipe Augusto Zenit Aktiv 137 / 122 40% 8 08.02.2027 -
Willem Geubbels Lecce Aktiv 112 / 116 40% 2 08.02.2027 -
Petar Stanić Ludogorets Aktiv 147 / 150 40% 1 08.02.2027 -
Jan Virgili Club Brugge Aktiv 132 / 137 40% 1 08.02.2027 -
Breel Embolo Atlanta United FC Aktiv 138 / 132 40% 5 07.02.2027 -
Giovanni Simeone Torino Aktiv 125 / 146 40% 3 07.02.2027 -
Luka Jović AEK Aktiv 130 / 121 40% 3 02.02.2027 -
Alexandr Sobolev Zenit Aktiv 117 / 116 40% 4 01.02.2027 -
Vitinha Genoa Aktiv 132 / 115 40% 1 01.02.2027 -
Tobias Bech AGF Aktiv 145 / 138 40% 1 31.01.2027 -
Prosper Obah Shakhtar Aktiv 128 / 113 40% 4 30.01.2027 -
Yusuke Matsuo Esteghlal Aktiv 140 / 122 40% 2 30.01.2027 -
Julián Quiñones Lokomotiv Moscow Aktiv 151 / 138 40% 3 27.01.2027 -
Domagoj Drožđek Tractor Aktiv 112 / 124 40% 5 25.01.2027 -
Everton Bala Levski Aktiv 140 / 131 40% 2 25.01.2027 -
Matthew Targett Hull City Aktiv 137 / 128 40% 1 25.01.2027 -
Ki-Jana Hoever Sparta Prague Aktiv 135 / 134 40% 1 22.01.2027 -
Jeppe Erenbjerg Racing Genk Aktiv 113 / 123 40% 1 20.01.2027 -
Mohau Nkota Al-Ettifaq Aktiv 134 / 127 40% 1 20.01.2027 -
Jiří Boula Banik Ostrava Aktiv 132 / 134 40% 1 19.01.2027 -
Alexey Miranchuk St. Gallen Aktiv 151 / 145 40% 6 16.01.2027 -
Aral Şimşir Trabzonspor Aktiv 125 / 144 40% 2 15.01.2027 -
Daan Heymans Racing Genk Aktiv 135 / 108 40% 1 15.01.2027 -
Matheus Gonçalves Al-Ahli Aktiv 138 / 111 40% 1 15.01.2027 -
Rashid Rashid Sparta Prague Aktiv 132 / 145 40% 2 14.01.2027 -
Nicolás Fernández Sassuolo Aktiv 138 / 135 40% 1 11.01.2027 -
Federico Bonazzoli Cremonese Aktiv 144 / 128 40% 1 10.01.2027 -
Oleksii Hutsuliak Polissia Aktiv 146 / 113 40% 1 08.01.2027 -
Matías Fernández Independiente Rivadavia Aktiv 119 / 126 40% 2 06.01.2027 -
Stanley Mills Oxford United Aktiv 134 / 129 40% 1 02.01.2027 -
Erik Prekop Gornik Zabrze Aktiv 113 / 138 40% 1 30.12.2026 -
Ivan Sergeev Dinamo Moscow Aktiv 121 / 114 40% 1 29.12.2026 -
Adriano Bertaccini Anderlecht Aktiv 120 / 121 40% 2 20.12.2026 -
Kévin Denkey FC Cincinnati Aktiv 118 / 132 40% 1 09.12.2026 -
Dominik Fiola Haladas Aktiv 114 / 120 40% 2 06.12.2026 -
Stanislav Agkatsev Sunderland Verhandlung 132 / 133 66% 1 01.12.2026 Befürworten
Marvin Keller Bayer Leverkusen Aktiv 136 / 137 67% 1 01.12.2026 Befürworten
Chuchu Ramírez Nacional Aktiv 115 / 125 40% 1 01.12.2026 -
Tiago Palacios Estudiantes Aktiv 121 / 135 40% 1 30.11.2026 -
Martín Ojeda Orlando City Aktiv 140 / 142 40% 4 29.11.2026 -
Christian Walton Ipswich Town Aktiv 114 / 141 40% 1 29.11.2026 -
Lukas Jensen Millwall Aktiv 101 / 121 40% 1 29.11.2026 -
Ibrahim Adel FC Nordsjaelland Aktiv 129 / 112 40% 1 27.11.2026 -
Iván Villalba Independiente Rivadavia Aktiv 131 / 112 40% 1 27.11.2026 -
Ignacio Rodríguez Racing Club Aktiv 111 / 117 40% 1 27.11.2026 -
Sam Surridge Nashville SC Aktiv 136 / 131 40% 6 22.11.2026 -
Pep Biel Charlotte Football Club Aktiv 141 / 118 40% 1 22.11.2026 -
Leo Ceara Kashima Antlers Aktiv 143 / 134 40% 3 21.11.2026 -
Matko Miljevic Racing Club Aktiv 139 / 121 40% 2 20.11.2026 -
Ola Brynhildsen Bodo/Glimt Aktiv 112 / 125 40% 2 20.11.2026 -
Agustín Cardozo Lanús Aktiv 129 / 125 40% 1 18.11.2026 -
Lukáš Červ Viktoria Plzen Aktiv 127 / 118 40% 1 17.11.2026 -
Hernán de la Fuente Instituto Aktiv 131 / 124 40% 1 17.11.2026 -
Max O'Leary West Bromwich Albion Aktiv 126 / 116 40% 1 14.11.2026 -
Nicolas Schmid Portsmouth Aktiv 128 / 109 40% 1 14.11.2026 -
Luka Kurtovic NK Domzale Aktiv 113 / 126 40% 1 09.11.2026 -
Jherson Mosquera Newell's Old Boys Aktiv 115 / 119 40% 1 04.11.2026 -
Matías Zaracho Racing Club Aktiv 119 / 127 40% 2 03.11.2026 -
Luciano Gondou CSKA Moscow Aktiv 119 / 114 40% 2 01.11.2026 -
Jesus Ferreira Seattle Sounders Aktiv 137 / 126 40% 3 30.10.2026 -
Samuel Essende Young Boys Aktiv 113 / 110 40% 1 30.10.2026 -
Angus Gunn San Jose Earthquakes Aktiv 123 / 130 40% 2 23.10.2026 -
Matt Freese New York City Aktiv 137 / 131 40% 1 23.10.2026 -
Álvaro Montero Boca Juniors Aktiv 117 / 125 40% 1 21.10.2026 -
Esteban Glellel Quilmes Aktiv 110 / 119 40% 1 20.10.2026 -
Drake Callender Minnesota United FC Aktiv 123 / 124 40% 1 17.10.2026 -
Keisuke Osako Sanfrecce Hiroshima Aktiv 145 / 134 40% 1 17.10.2026 -
Santiago Montiel Independiente Aktiv 137 / 117 40% 1 14.10.2026 -
Leandro Lozano Boca Juniors Aktiv 123 / 124 40% 1 14.10.2026 -
Marcelino Moreno Lanús Aktiv 138 / 127 40% 1 13.10.2026 -
Yuki Kakita Kashima Antlers Aktiv 144 / 137 40% 1 10.10.2026 -
Karim Konaté Red Bull Salzburg Aktiv 150 / 131 40% 2 09.10.2026 -
Manfred Ugalde Spartak Moscow Aktiv 118 / 133 40% 2 07.10.2026 -
Mutsuki Kato Sanfrecce Hiroshima Aktiv 121 / 139 40% 2 06.10.2026 -
Musa Barrow Al-Khaleej Aktiv 118 / 123 40% 3 05.10.2026 -
Jhonatan Candia Barracas Central Aktiv 127 / 116 40% 1 05.10.2026 -
Jonathan Levi Ferencvaros Aktiv 113 / 126 40% 1 04.10.2026 -
Marquinhos Spartak Moscow Aktiv 117 / 124 40% 1 04.10.2026 -
Myrto Uzuni Austin FC Aktiv 136 / 135 40% 1 29.09.2026 -
Kein Sato FC Tokyo Aktiv 133 / 141 40% 3 22.09.2026 -
Antonio Galeano Remo Stars Aktiv 133 / 111 40% 1 22.09.2026 -
Ştefan Târnovanu FCSB Aktiv 121 / 118 40% 1 21.09.2026 -
Renato Solís Sporting Cristal Aktiv 131 / 131 40% 1 21.09.2026 -
Dayne St. Clair Inter Miami CF Aktiv 135 / 119 40% 2 15.09.2026 -
Andreas Hansen FC Nordsjaelland Aktiv 118 / 111 40% 1 15.09.2026 -
Sergi Palencia Los Angeles Football Club Aktiv 139 / 134 40% 1 10.09.2026 -
Ernest Muçi Trabzonspor Aktiv 145 / 131 40% 2 08.09.2026 -
Maurits Kjærgaard Red Bull Salzburg Aktiv 121 / 142 40% 1 08.09.2026 -
Cho Gue-Sung FC Midtjylland Aktiv 145 / 141 40% 2 07.09.2026 -
Jonathan Bamba Chicago Fire Aktiv 132 / 127 40% 1 07.09.2026 -
Iván Angulo Orlando City Aktiv 119 / 125 40% 1 07.09.2026 -
Barış Alper Yılmaz Galatasaray Aktiv 153 / 143 40% 1 02.09.2026 -
Youssef En-Nesyri Al-Ittihad Aktiv 128 / 125 40% 2 23.08.2026 -
Mojmír Chytil NK Maribor Aktiv 141 / 144 40% 1 21.08.2026 -
Takuma Asano Sanfrecce Hiroshima Aktiv 123 / 131 40% 1 20.08.2026 -
Erison Kawasaki Frontale Aktiv 133 / 138 40% 2 17.08.2026 -
Ivan Toney Al-Ahli Aktiv 166 / 151 40% 1 15.08.2026 -
Kerem Aktürkoğlu Fenerbahce Aktiv 122 / 126 40% 1 09.08.2026 -
Marco Asensio Fenerbahce Aktiv 162 / 147 40% 1 08.08.2026 -
Anton Salétros Chicago Fire Aktiv 129 / 116 40% 1 08.08.2026 -
Francisco González Metilli Belgrano Aktiv 123 / 130 40% 1 06.08.2026 -
Joseph Paintsil LA Galaxy Aktiv 136 / 130 40% 1 03.08.2026 -
Manuel Roffo Cerro Porteno Aktiv 122 / 116 40% 1 03.08.2026 -
Brais Méndez Columbus Crew Aktiv 144 / 148 40% 1 01.08.2026 -